Precipitable_Water
1.07 1.03 0.98 0.99 1.00 0.99 0.99 0.97 0.92 0.81 0.77 0.67 0.61 0.57 0.49 0.42 0.36 0.33 0.31 0.30 0.33 0.34
1.07 1.11 1.16 1.22 1.21 1.11 1.04 0.87 0.77 0.74 0.66 0.59 0.55 0.49 0.42 0.35 0.32 0.31 0.32 0.33 0.35 0.35
1.12 1.17 1.22 1.15 1.08 0.97 0.87 0.76 0.67 0.59 0.58 0.53 0.48 0.41 0.35 0.32 0.32 0.31 0.32 0.33 0.33 0.35
1.11 1.17 1.09 1.00 0.94 0.87 0.74 0.65 0.58 0.56 0.52 0.47 0.39 0.35 0.32 0.31 0.31 0.31 0.32 0.35 0.37 0.37
1.06 1.04 0.98 0.92 0.82 0.70 0.62 0.59 0.54 0.50 0.44 0.38 0.35 0.33 0.31 0.31 0.32 0.34 0.35 0.36 0.36 0.35
1.04 0.98 0.90 0.81 0.66 0.59 0.56 0.52 0.48 0.42 0.36 0.34 0.32 0.32 0.33 0.34 0.35 0.36 0.37 0.37 0.33 0.28
0.97 0.88 0.78 0.62 0.54 0.52 0.49 0.45 0.40 0.36 0.34 0.32 0.32 0.33 0.35 0.36 0.38 0.38 0.35 0.29 0.25 0.24
0.80 0.68 0.56 0.52 0.50 0.47 0.43 0.39 0.37 0.34 0.33 0.34 0.35 0.36 0.38 0.38 0.35 0.30 0.26 0.25 0.25 0.25
0.58 0.54 0.51 0.48 0.46 0.42 0.39 0.37 0.34 0.33 0.33 0.34 0.37 0.39 0.38 0.33 0.30 0.28 0.26 0.24 0.24 0.24
0.53 0.49 0.48 0.44 0.41 0.38 0.36 0.34 0.33 0.33 0.34 0.34 0.34 0.34 0.35 0.33 0.29 0.27 0.26 0.24 0.23 0.23
0.49 0.45 0.42 0.40 0.38 0.36 0.34 0.33 0.33 0.33 0.30 0.31 0.33 0.34 0.33 0.31 0.30 0.28 0.26 0.25 0.24 0.23
0.43 0.41 0.39 0.37 0.35 0.33 0.33 0.33 0.30 0.31 0.33 0.33 0.31 0.31 0.31 0.31 0.29 0.26 0.24 0.24 0.24 0.24
0.40 0.39 0.37 0.34 0.33 0.34 0.32 0.31 0.33 0.33 0.33 0.32 0.29 0.31 0.32 0.31 0.28 0.24 0.24 0.24 0.24 0.24
0.40 0.38 0.35 0.35 0.33 0.33 0.33 0.34 0.33 0.32 0.32 0.29 0.29 0.29 0.29 0.29 0.27 0.26 0.25 0.23 0.22 0.23
Wind_Speed
32 30 28 26 26 25 26 24 25 20 18 19 19 21 21 22 22 22 23 24 26 28
31 32 29 24 22 18 20 18 17 18 17 18 19 20 21 21 22 23 24 26 28 31
34 25 25 25 23 20 17 16 17 18 18 19 20 20 21 22 23 24 26 29 31 34
31 28 20 22 19 19 18 17 17 17 18 19 19 20 21 22 24 26 29 31 33 36
28 26 24 23 20 20 19 17 17 17 18 19 20 21 22 23 26 28 31 34 37 39
26 24 23 20 18 16 17 17 17 17 18 19 20 21 23 25 28 31 33 37 39 42
23 22 19 17 15 15 16 16 16 17 18 19 20 23 25 27 30 33 36 39 41 43
18 17 16 14 14 15 15 15 16 17 18 20 22 24 27 30 33 36 38 40 41 43
16 15 14 13 14 14 14 15 15 17 19 21 24 27 29 32 35 37 39 40 42 43
14 13 13 13 13 13 14 15 16 18 21 24 26 29 31 33 36 37 39 41 43 45
13 12 12 12 12 13 14 16 18 20 23 26 28 30 32 34 36 38 40 42 44 46
12 12 12 12 13 13 15 17 20 22 25 27 30 31 33 35 37 39 42 43 45 47
12 11 11 11 12 14 17 19 21 23 26 28 30 32 34 36 39 41 43 44 45 47
10 10 11 12 14 16 18 20 22 24 27 29 31 34 36 38 40 42 43 45 46 46
Wind_Direction
222 225 226 233 241 248 250 256 259 262 267 274 275 281 286 289 291 293 294 295 297 299
222 221 227 241 242 250 247 250 255 264 270 277 282 284 288 290 293 294 295 297 299 300
219 229 238 241 245 248 254 256 261 263 272 279 284 287 289 291 293 295 297 299 301 302
222 228 233 235 244 248 254 259 265 270 274 280 284 288 291 293 295 297 300 302 304 304
219 225 232 240 245 248 252 257 266 274 278 282 285 289 292 295 298 300 302 304 306 306
214 222 227 233 242 246 249 257 269 276 280 283 287 291 295 298 300 303 305 306 307 307
209 220 226 230 237 246 256 264 271 276 281 286 290 293 297 300 303 305 307 307 308 308
202 209 217 229 240 251 260 267 272 278 284 288 292 297 300 303 306 307 308 309 309 310
208 215 223 235 245 254 261 269 275 280 287 292 297 301 304 306 307 309 310 310 311 311
208 217 228 239 246 255 263 271 279 286 291 297 300 303 305 307 309 311 312 312 313 313
213 224 232 239 248 257 266 276 284 292 297 300 302 305 307 308 311 312 314 314 314 315
218 223 232 241 252 265 275 284 291 296 299 302 305 307 308 310 312 314 315 316 316 316
221 228 238 251 264 274 283 289 294 298 302 306 307 310 311 312 313 315 316 316 317 318
225 236 249 262 273 281 287 293 298 302 305 307 309 310 312 314 315 315 316 317 318 319